User: anonymous   Login
Location: Axtheid
(49.6213°N, 11.8205°E)
Time: 20:17:30
(UTC+00:00)
Language:

Cosmos 405 - Orbit

View from above orbital plane
View from above orbital plane
View from above satellite
View from above satellite

Ground track
Ground track

The orbit data is extracted from the following two-line orbital elements,

1 05117U 71028A   21104.54190102  .00001874  00000-0  50572-4 0  9995
2 05117  81.2608 142.6692 0009698   9.2616 106.3230 15.37192133726866
Epoch (UTC): 14 April 2021 13:00:20
Eccentricity: 0.0009698
inclination: 81.2608°
perigee height: 448 km
apogee height: 461 km
right ascension of ascending node: 142.6692°
argument of perigee: 9.2616°
revolutions per day: 15.37192133
mean anomaly at epoch: 106.3230°
orbit number at epoch: 72686

The dashed part of the orbit path shows where the satellite is in the earth's shadow,  

DLR